Theta_e
348 349 352 353 352 352 352 351 350 350 351 351 349 350 348 347 348 348 349 350 349 350 349 350 348 349 348 344 342 342 341 340 339 340 343 345 344 340 341 341 340 340 337 331 328 332 337 337 338 338 338 338 338 337 336 335 335 335 336 336 336 336 336 336 336 335 336 336 335 335 335 335 335 334 332 332 331 331 333 335 336 337 338 338 338
348 348 352 353 353 353 352 351 352 352 352 352 350 350 348 348 350 349 349 350 350 349 350 349 348 348 349 348 347 346 345 344 342 342 341 343 344 341 340 341 340 340 340 337 333 332 335 336 337 338 338 338 339 339 339 338 337 337 338 338 339 339 338 338 338 337 338 337 337 337 337 337 337 336 335 334 334 335 337 337 338 338 338 339 339
347 348 353 353 353 353 352 352 353 352 352 352 352 351 350 349 349 349 350 350 350 351 350 350 349 349 349 349 349 349 348 348 346 346 346 343 342 342 340 339 339 340 339 339 338 337 336 336 335 335 335 336 337 339 340 340 340 339 340 340 340 340 340 340 339 339 339 339 338 339 339 339 339 339 338 338 338 338 338 339 339 338 339 339 340
346 347 351 353 353 353 353 353 353 353 352 352 350 351 351 348 344 344 348 351 351 350 351 350 349 349 349 349 349 349 349 349 348 348 347 344 341 342 342 341 340 339 340 340 340 339 339 338 337 337 336 335 335 337 337 338 339 339 340 340 339 340 340 340 340 340 340 339 339 340 339 339 339 339 339 339 339 339 339 339 339 339 340 340 340
345 344 349 353 353 353 354 353 353 353 352 349 350 351 351 350 346 343 347 352 351 350 350 349 349 349 348 348 348 348 348 348 348 348 347 347 342 341 343 342 341 340 340 340 340 340 340 340 340 340 340 339 338 337 337 338 338 338 339 339 339 339 340 340 340 340 340 340 340 340 340 340 340 340 340 340 340 340 340 340 340 340 340 340 340
344 343 348 353 354 353 354 354 353 353 352 350 351 353 352 352 350 347 347 350 350 349 350 349 348 349 347 348 347 346 348 347 347 347 347 348 344 341 343 343 342 342 341 340 340 341 341 341 341 341 341 340 340 340 340 340 340 340 340 340 340 340 340 340 340 340 340 340 340 340 340 340 340 340 340 341 341 340 340 341 340 340 340 340 340
344 342 346 352 354 354 355 353 352 354 353 348 352 354 352 350 350 349 348 348 348 347 348 348 349 349 346 347 345 344 347 346 345 348 346 345 343 341 342 344 344 344 343 343 341 340 340 340 341 341 341 341 341 341 341 342 341 341 342 342 342 341 341 340 341 340 340 340 340 340 340 340 340 340 339 340 340 340 340 340 339 338 337 337 338
344 343 345 352 355 354 354 351 349 353 351 346 351 353 350 348 347 347 347 346 345 344 344 344 346 347 346 345 344 343 346 346 346 348 346 344 345 343 341 342 344 344 343 344 343 343 340 339 339 340 341 341 341 341 341 341 341 342 342 341 341 342 341 341 341 340 340 340 340 340 340 339 339 338 338 337 337 336 335 335 333 331 329 329 331
344 343 346 354 355 354 355 350 349 350 347 346 349 348 347 346 343 343 344 343 342 340 340 342 343 344 345 344 343 343 345 346 346 346 344 343 344 345 343 341 342 342 342 343 344 344 341 339 337 338 340 340 341 341 341 341 341 341 342 341 342 342 341 341 340 340 340 340 340 339 339 338 337 335 332 330 329 327 325 325 324 322 321 321 322
346 345 346 352 353 352 351 349 349 348 345 345 346 345 344 344 343 341 339 340 340 340 339 340 342 342 342 343 342 341 343 343 342 345 346 345 343 343 343 342 341 342 341 342 343 343 342 342 340 339 341 339 339 341 340 341 340 340 341 341 341 341 341 341 341 340 340 340 339 338 337 334 331 327 323 322 321 319 319 318 318 318 318 318 318
348 347 346 349 352 350 345 346 347 345 344 344 344 344 343 342 343 341 338 338 338 338 339 339 341 341 341 343 340 337 340 342 342 345 348 347 345 343 344 343 341 342 341 341 343 342 342 342 342 342 343 341 338 338 338 339 339 339 339 339 339 338 338 339 339 339 339 338 337 335 332 327 323 320 319 319 318 318 318 318 318 318 317 317 317
347 347 345 346 351 349 344 344 346 345 345 345 345 345 343 342 342 341 340 340 337 336 338 340 342 341 340 342 341 335 336 339 343 346 346 348 346 344 347 346 343 344 343 343 343 343 342 340 341 341 341 341 341 339 338 336 336 336 336 336 335 333 331 331 332 332 333 334 333 330 326 321 318 318 319 318 318 317 317 317 317 317 316 316 317
346 347 345 343 346 345 342 343 345 346 345 346 345 344 345 345 343 342 343 342 341 339 337 338 340 341 340 342 341 340 340 340 344 346 346 348 347 346 347 347 346 345 343 342 340 339 341 339 335 336 336 338 341 342 340 338 337 337 335 333 332 329 325 324 323 325 327 329 328 325 321 318 318 318 318 317 317 317 316 317 317 317 317 318 318
344 345 345 344 344 342 340 341 344 345 346 346 346 344 345 346 345 345 343 342 341 339 335 338 340 340 341 342 342 341 343 343 343 344 345 347 348 348 348 347 347 347 344 342 340 340 343 341 336 334 334 335 337 339 338 338 339 338 336 334 331 326 321 320 320 321 323 324 323 320 318 318 318 318 317 317 317 317 318 318 318 319 319 320 320
343 343 343 343 343 342 342 342 343 345 345 346 345 344 345 346 347 346 344 341 340 337 335 336 339 340 340 340 341 342 343 343 342 342 344 345 346 347 347 346 346 346 344 344 344 344 343 340 336 332 330 331 333 334 335 337 337 336 335 335 332 323 320 319 319 319 319 319 319 318 318 318 317 318 318 319 319 319 320 320 320 320 321 321 321
344 344 342 341 341 341 342 342 343 345 346 346 346 345 345 346 347 346 344 343 341 339 337 336 338 340 342 341 341 342 343 343 342 342 343 344 345 344 345 345 345 343 343 345 344 343 342 338 334 330 328 327 328 329 330 334 336 334 332 333 328 321 319 320 319 318 318 318 317 317 317 318 319 320 320 320 321 321 321 321 321 321 321 321 321
345 344 342 341 341 341 342 343 343 344 345 347 349 348 346 345 346 346 345 343 343 342 340 339 338 338 341 343 342 342 342 341 342 343 343 344 344 343 343 344 344 342 342 344 341 340 342 340 334 331 330 328 327 326 325 327 330 328 329 330 324 319 320 320 319 319 318 318 317 318 319 319 320 321 321 321 322 321 321 321 321 321 321 321 321
344 344 344 342 341 342 342 342 342 343 344 346 348 350 350 349 348 348 347 343 342 342 342 341 339 336 339 342 342 342 342 343 343 343 344 344 343 343 343 343 344 343 343 344 342 342 343 342 339 336 334 330 327 324 321 322 322 322 326 327 321 319 320 319 319 318 318 319 319 320 320 320 320 321 321 321 321 320 320 320 321 321 321 321 321
344 344 344 344 343 342 342 341 341 341 342 343 346 351 354 353 350 349 348 343 339 342 343 343 340 339 341 342 343 343 342 344 345 344 345 345 344 343 343 342 343 343 344 343 344 344 344 344 344 343 340 335 330 326 322 321 321 319 321 322 319 319 320 318 319 319 319 320 320 320 320 320 321 320 321 321 320 320 320 320 321 321 321 320 321
344 343 344 344 343 343 341 341 340 339 340 341 344 348 350 349 348 347 347 342 338 339 342 342 342 342 343 343 344 344 343 344 344 345 345 344 344 343 343 342 342 342 343 343 343 343 344 344 345 345 344 340 335 329 325 322 323 322 321 321 320 320 320 320 320 320 320 321 320 321 321 321 321 320 320 320 320 321 321 321 321 321 321 321 321
343 342 344 345 344 343 343 341 340 339 339 340 344 346 345 346 347 347 346 343 340 337 338 340 340 342 345 344 344 345 345 345 345 345 346 345 344 344 344 343 343 343 343 343 343 343 344 345 344 343 345 343 339 334 329 327 327 326 325 324 324 323 322 323 322 321 322 322 322 322 322 322 322 322 322 321 321 321 321 321 321 321 321 321 321
343 343 344 345 346 345 343 341 340 340 339 339 342 345 345 345 347 348 346 344 341 338 338 341 341 340 343 343 343 346 347 347 347 346 346 346 345 344 343 343 344 345 344 344 344 344 343 344 344 344 345 345 344 340 334 331 330 330 328 326 325 324 324 324 324 324 324 323 323 323 323 323 322 322 322 321 321 321 321 321 321 322 322 322 322
344 345 344 344 346 346 343 340 339 340 340 340 340 343 347 348 347 347 347 345 342 339 339 341 340 339 340 341 342 345 347 347 346 347 347 347 347 345 344 344 344 343 344 345 344 343 343 344 343 344 345 345 345 344 339 333 331 331 329 327 326 326 326 325 325 325 324 324 324 324 324 324 324 324 324 323 322 322 321 321 321 321 322 322 322
343 347 346 344 345 346 344 339 338 338 340 341 340 340 346 349 347 345 347 346 343 340 338 338 341 342 343 345 345 345 346 346 345 345 347 347 347 346 345 344 344 343 344 344 343 343 343 343 343 343 344 345 343 341 338 335 334 332 331 330 328 329 329 328 328 328 328 327 326 326 325 325 324 324 324 324 324 324 323 322 322 322 322 322 322
342 345 348 347 345 345 345 341 339 339 339 342 342 340 341 344 345 344 345 346 346 344 342 339 342 344 345 346 346 345 345 345 343 342 345 347 346 346 346 345 345 344 344 342 340 341 342 341 342 342 342 341 339 336 334 337 338 335 332 332 330 330 330 330 330 330 330 330 329 329 328 327 326 325 324 324 324 324 324 324 323 322 322 322 322
341 342 346 348 347 345 345 343 342 343 342 342 342 342 341 339 341 342 343 344 346 346 344 343 342 343 343 343 345 346 344 342 343 342 342 344 345 346 348 347 346 344 345 344 340 341 343 342 343 341 336 335 334 333 332 335 338 335 332 332 331 330 330 330 330 331 331 332 331 331 330 330 330 329 328 327 325 324 324 324 324 324 323 323 322
341 341 343 345 346 345 344 344 343 344 344 343 341 342 343 341 339 340 341 342 345 346 345 345 344 343 343 341 342 346 346 343 344 344 343 343 343 343 345 346 346 345 344 344 343 345 345 343 342 338 333 331 331 331 331 332 334 333 331 332 331 330 331 330 331 332 332 332 333 333 332 332 332 332 332 331 330 328 326 325 324 324 324 324 323
342 341 342 343 344 344 344 344 344 344 344 344 342 340 343 344 341 339 340 341 342 345 345 344 343 343 345 343 340 344 347 342 340 340 339 338 339 339 340 343 347 346 345 345 345 346 344 343 341 335 329 329 328 328 329 330 331 331 331 331 331 331 331 330 331 332 332 332 332 332 332 332 333 333 333 333 333 332 332 330 328 326 325 324 324
341 341 341 342 343 343 344 344 344 344 345 345 343 341 341 344 343 339 339 341 341 342 343 343 343 344 346 345 341 342 343 337 333 332 331 330 331 332 333 337 339 341 344 345 343 342 343 342 341 337 331 328 328 327 327 328 329 329 330 329 329 330 330 329 329 329 329 329 329 329 330 331 331 332 333 333 333 334 334 334 333 331 328 325 324
341 340 341 342 342 341 342 344 345 345 346 345 344 342 341 343 345 342 340 341 340 340 341 341 342 343 345 345 343 343 343 341 340 338 334 333 333 331 331 332 332 335 338 339 339 339 340 342 342 341 337 333 332 333 333 332 332 332 332 331 330 329 328 328 327 326 326 326 326 326 326 327 327 328 329 330 332 333 333 333 334 333 332 330 327
341 340 341 340 341 341 341 341 343 344 345 345 344 343 342 342 343 343 341 339 339 340 339 340 341 341 341 342 342 341 341 342 344 343 340 339 339 338 338 337 337 337 337 338 340 339 338 341 342 339 340 339 337 336 336 336 336 335 336 335 335 333 332 330 328 328 327 326 326 326 325 325 325 324 325 325 327 329 331 332 333 333 333 332 330
342 341 340 341 340 341 341 341 343 344 344 344 344 343 343 342 341 342 343 340 338 339 339 340 341 341 340 340 341 340 340 340 341 341 341 341 339 340 340 340 340 340 339 340 341 338 336 338 338 337 340 342 339 337 336 337 336 336 336 336 336 335 335 335 334 333 332 331 330 330 329 328 327 326 325 324 324 324 325 328 330 332 333 333 332
343 342 340 340 340 340 340 340 343 345 343 343 343 342 343 343 342 341 340 339 338 338 339 339 339 339 339 340 340 340 341 341 340 342 343 345 345 342 341 340 340 340 339 339 339 339 338 338 337 337 338 337 337 336 336 336 336 335 335 333 333 334 333 333 334 334 333 333 334 333 334 333 333 332 331 330 328 326 324 323 324 327 329 332 333
342 342 340 340 340 339 340 340 341 342 341 341 342 341 342 342 341 340 338 337 337 338 337 338 338 338 339 340 341 340 341 340 340 340 343 347 350 350 349 345 342 342 341 339 338 338 339 340 340 339 338 337 336 335 335 334 334 333 333 332 332 332 332 331 330 331 330 330 330 331 331 332 334 335 335 335 335 333 331 328 325 324 325 326 329
342 341 340 340 339 339 340 340 341 340 340 340 340 340 340 339 338 339 339 337 336 337 337 337 337 337 338 340 342 341 339 339 339 338 339 341 344 346 347 344 341 341 340 338 337 338 338 339 339 338 338 338 337 335 335 334 333 332 332 331 331 331 330 330 329 327 327 327 329 330 331 333 334 335 335 335 336 336 336 334 332 330 327 324 325
342 341 341 340 340 339 339 339 340 340 339 339 339 340 339 337 336 337 337 337 336 336 336 336 336 336 336 338 341 341 338 337 337 337 337 337 337 337 338 338 337 336 336 337 338 340 341 340 339 338 337 336 334 333 333 332 332 331 331 330 331 331 330 331 331 329 330 333 336 337 337 337 337 337 337 337 337 337 336 335 334 335 333 330 326
345 343 341 341 340 340 339 340 339 339 339 338 339 338 338 336 336 335 335 335 335 335 336 336 335 336 336 337 339 341 341 338 336 335 335 335 335 335 335 335 335 337 341 340 339 342 346 345 342 338 336 335 336 335 334 334 332 330 332 335 335 336 334 335 337 339 340 341 342 343 344 344 344 344 344 344 344 344 344 340 338 337 337 336 333
347 345 343 342 341 340 339 340 339 338 338 339 338 337 337 337 335 334 334 334 333 334 335 336 336 336 336 337 338 340 340 337 336 336 336 335 335 334 334 333 334 339 343 341 339 344 348 347 345 342 342 344 346 345 343 343 341 336 336 343 343 342 343 345 348 349 349 348 346 346 347 348 349 349 349 348 348 349 350 349 346 344 342 340 339
348 348 346 342 341 340 340 339 339 338 338 338 338 337 336 337 336 334 333 333 334 333 334 335 336 336 336 335 336 337 336 335 334 335 335 335 335 334 333 334 334 336 339 340 342 346 348 348 348 349 350 351 351 350 348 348 349 346 347 350 349 345 347 351 352 353 352 351 350 349 349 351 352 351 351 350 350 351 352 352 352 351 349 346 344
349 350 349 344 340 340 341 340 339 339 338 337 337 337 336 336 335 333 331 332 334 334 334 334 335 337 337 335 334 333 333 333 333 333 334 334 334 334 333 334 335 336 337 340 344 348 349 351 353 353 354 354 352 352 351 352 353 354 354 355 353 352 353 353 352 353 352 351 350 348 348 351 352 352 352 351 351 351 349 349 351 352 353 353 350
349 351 351 349 345 342 342 341 340 339 338 337 336 335 334 334 334 333 331 331 332 333 333 334 335 337 336 336 338 337 333 332 332 332 333 333 334 334 334 333 334 337 339 343 347 351 352 353 353 353 353 353 353 354 354 355 356 357 357 356 356 357 356 355 354 354 353 352 352 351 349 351 352 353 352 348 345 345 342 336 338 341 344 346 349
349 349 350 351 350 347 343 341 341 340 338 337 335 334 333 333 333 332 331 330 331 332 333 334 336 336 335 337 341 339 333 331 332 332 332 333 333 333 333 333 334 337 343 347 350 353 354 354 353 353 353 354 355 355 356 357 358 358 358 357 357 357 356 355 355 354 353 352 353 353 349 346 347 348 345 339 335 337 338 333 332 333 332 332 336
348 348 349 350 351 351 348 342 341 340 338 336 333 332 332 332 332 332 331 330 330 331 332 333 334 335 336 338 341 340 334 331 332 332 331 332 332 332 332 332 333 336 340 344 347 351 354 354 354 354 355 356 356 356 357 358 358 358 358 356 355 355 355 354 355 354 351 350 353 353 346 335 337 338 334 331 330 331 332 332 332 332 332 331 330
348 348 349 349 349 351 351 347 342 340 338 336 334 333 332 332 332 332 331 330 330 330 331 332 332 333 334 336 340 343 340 333 330 331 331 331 331 331 331 332 334 336 338 340 343 347 351 353 355 355 356 356 357 357 358 358 356 357 356 354 353 354 354 354 353 352 343 337 344 347 341 330 332 334 330 329 329 328 328 329 329 330 330 331 331
348 348 349 349 348 350 352 349 344 341 340 337 334 333 332 331 332 332 331 331 330 330 330 330 331 331 332 332 334 337 336 331 328 330 330 330 330 331 331 333 334 335 337 339 343 345 348 351 354 355 355 357 358 359 358 357 355 354 354 354 354 353 351 349 346 342 334 329 332 336 334 330 330 332 330 328 328 329 332 332 331 331 331 330 330
349 348 349 349 349 349 350 348 345 344 342 339 334 333 333 332 331 332 332 330 330 330 330 329 329 330 330 331 329 329 330 329 329 330 330 330 331 331 332 333 334 335 338 341 344 347 349 351 354 355 355 356 358 359 359 358 355 353 354 354 352 348 342 337 335 333 330 328 327 329 331 328 328 333 334 334 337 339 341 342 339 338 338 338 335
348 349 349 349 350 349 349 348 347 345 342 339 335 334 333 333 333 332 331 331 331 330 329 329 329 329 328 328 329 328 328 328 329 329 329 330 331 332 335 336 335 341 347 350 351 353 354 354 355 355 356 357 358 357 357 356 355 353 352 349 343 336 332 330 329 328 328 329 330 335 337 335 335 340 341 341 342 344 345 344 342 340 342 343 341
349 349 349 349 350 349 349 348 347 346 341 338 335 333 333 333 333 333 332 332 331 330 330 329 329 328 328 328 328 328 328 328 329 329 330 331 332 335 337 337 339 346 353 355 356 357 357 356 357 357 358 359 359 358 357 355 353 348 343 338 332 330 330 329 329 332 336 338 339 341 343 341 340 342 343 341 342 343 343 343 342 342 343 344 343
351 349 348 349 349 349 349 348 347 345 343 339 336 334 334 333 334 334 333 332 332 331 330 330 329 329 328 328 328 328 328 329 329 330 331 332 335 337 337 340 344 351 355 357 357 357 357 358 358 358 359 360 360 359 357 352 344 338 333 330 329 332 337 339 339 339 341 342 341 343 344 342 340 342 344 343 343 343 342 343 343 343 344 344 343
351 350 349 349 349 349 349 349 348 345 344 343 339 335 335 335 334 335 334 334 334 332 331 331 330 329 329 328 328 329 329 330 330 331 332 333 336 338 340 346 351 354 356 357 357 358 358 358 358 359 360 360 359 357 351 341 333 330 329 329 333 338 341 342 342 341 340 340 341 342 343 342 340 342 343 343 342 342 342 343 343 343 345 344 344
350 351 351 349 349 349 349 349 349 347 346 347 343 339 337 337 336 337 337 337 336 334 333 332 331 330 330 330 329 330 330 330 331 332 333 336 339 341 345 351 354 356 357 358 358 358 358 358 359 360 360 360 357 350 340 333 330 331 333 336 339 341 341 340 339 339 338 337 337 338 339 339 337 338 339 340 340 340 340 341 341 341 342 342 342
Wind_Speed
6 6 7 6 6 6 6 6 4 6 7 7 8 9 8 7 7 8 10 11 9 8 8 7 7 6 5 6 6 6 6 6 6 6 6 5 4 3 4 5 5 6 7 6 4 4 4 4 4 4 3 4 4 4 4 3 3 3 3 3 3 3 3 4 4 4 4 5 5 6 6 6 6 6 6 6 6 7 7 8 8 8 8 9 9
6 6 6 6 6 6 5 6 5 6 7 6 7 7 7 7 7 7 8 11 9 7 8 7 7 6 6 6 5 5 5 5 5 5 5 4 3 3 4 4 4 5 6 6 5 5 4 3 2 2 2 2 2 3 3 3 2 2 2 2 2 3 3 4 4 5 5 5 6 6 6 6 6 6 6 6 6 7 7 8 8 8 9 9 10
5 6 6 5 5 5 5 5 6 6 6 6 6 6 6 6 7 7 7 9 8 8 8 7 7 6 6 6 5 5 4 4 4 4 4 4 3 2 3 3 3 4 4 5 5 4 4 4 3 2 1 1 0 1 1 1 1 1 1 2 2 3 4 4 5 5 6 6 6 6 6 6 6 7 7 7 7 7 8 8 8 9 9 9 10
6 6 6 5 5 5 5 5 5 5 5 5 5 5 5 6 9 9 9 9 8 9 9 7 8 7 7 6 6 5 4 5 4 4 4 4 4 3 2 2 2 2 3 3 4 3 3 3 3 2 2 1 0 0 0 1 1 1 2 2 3 3 4 4 5 6 6 6 6 6 7 7 6 7 7 7 7 8 8 8 9 9 9 10 10
6 6 5 4 4 4 4 4 4 4 4 5 5 5 5 5 7 8 9 9 8 9 9 7 8 8 7 6 6 5 5 5 4 4 4 3 3 3 2 2 2 1 2 2 2 2 2 2 2 2 2 1 1 1 1 1 2 2 3 3 3 4 4 4 5 5 6 6 6 6 7 7 7 7 8 8 8 8 8 8 9 9 9 9 9
6 6 5 4 3 4 4 3 3 4 4 5 5 4 4 4 5 6 7 7 7 8 8 7 7 7 7 6 6 6 5 4 3 4 4 4 3 3 3 2 2 1 1 1 1 1 1 1 0 0 1 1 1 1 1 1 2 3 3 4 4 4 5 5 5 6 6 6 7 7 7 7 7 7 8 8 8 8 8 8 8 8 8 8 8
5 5 5 4 3 3 3 2 3 4 4 4 5 3 3 3 4 5 5 6 5 6 6 6 6 6 7 6 5 5 5 4 4 4 3 3 3 3 2 2 1 1 1 0 0 1 1 1 1 1 0 1 1 1 2 2 3 3 4 4 5 5 5 5 5 6 6 6 7 7 7 7 7 7 7 7 7 7 7 7 7 7 7 7 6
4 4 4 4 3 2 2 1 2 3 3 5 5 3 3 3 4 5 5 5 4 4 4 4 5 5 6 5 4 5 5 4 5 4 3 3 3 2 2 1 1 1 1 1 1 2 3 3 3 2 2 2 2 2 3 3 3 4 4 5 5 5 5 5 6 6 6 6 6 6 7 7 7 6 6 5 5 5 5 5 5 5 6 6 5
5 4 4 3 2 2 2 0 1 2 3 5 5 3 4 3 4 4 4 5 4 3 3 3 4 4 5 4 3 4 4 4 4 3 3 3 2 2 1 1 1 1 1 1 2 3 4 4 4 3 3 3 3 3 3 3 3 3 4 4 5 5 5 6 6 6 6 5 6 6 6 6 6 5 4 4 4 4 5 5 5 5 5 5 5
6 4 4 3 3 3 2 1 1 2 3 4 4 4 3 2 3 4 4 3 3 3 3 3 3 4 4 3 2 3 3 4 4 4 3 2 1 2 1 1 1 1 1 2 2 3 4 4 4 4 4 4 4 4 4 4 5 4 4 4 4 5 6 6 6 6 6 6 6 6 6 5 5 4 4 5 5 5 5 5 5 5 5 5 5
6 5 4 4 2 2 2 1 1 2 4 3 3 3 2 2 2 4 5 3 1 2 2 3 3 3 3 2 1 2 2 2 3 3 2 1 1 1 1 0 1 1 1 1 1 2 3 4 4 5 5 5 5 5 5 5 5 5 5 5 5 6 6 7 7 6 6 6 6 5 5 5 4 4 5 6 6 6 6 5 5 5 5 5 5
7 6 5 4 3 2 1 0 1 2 3 3 2 3 2 2 2 3 4 2 2 2 2 2 3 2 1 1 1 1 1 1 1 1 2 1 0 1 1 1 1 1 1 1 0 1 2 2 3 4 4 5 6 5 5 4 4 4 5 5 5 6 6 6 7 7 7 6 6 5 5 4 4 5 6 7 7 6 6 6 5 5 5 5 5
8 7 6 5 4 3 2 2 1 1 2 2 2 3 3 2 2 3 3 2 2 2 3 3 3 1 1 1 2 2 2 2 1 1 1 1 0 1 1 1 1 0 0 1 1 2 3 3 3 3 4 5 5 5 5 5 5 4 5 5 5 6 7 6 6 6 5 5 4 4 4 4 5 7 7 7 6 6 5 5 5 5 4 4 5
9 8 7 6 5 4 4 4 3 2 1 2 3 3 3 2 2 3 3 2 2 2 4 4 2 2 1 1 1 1 2 2 2 2 1 1 1 0 0 1 1 1 1 1 2 2 2 4 4 3 3 3 4 5 5 6 5 5 6 5 5 7 7 6 5 5 4 3 3 3 4 5 6 6 6 6 5 5 4 4 4 4 4 4 4
10 9 8 7 6 5 5 5 5 3 2 2 3 3 2 2 2 4 4 2 2 2 3 4 3 2 1 1 1 0 1 1 2 2 2 1 1 1 1 1 1 1 0 1 1 1 1 3 4 4 3 3 3 4 4 5 6 6 6 6 6 7 6 5 5 4 4 3 3 4 5 5 5 5 5 5 5 5 4 4 4 4 4 4 5
10 9 9 8 7 6 5 5 5 3 2 2 3 3 3 3 2 3 4 3 2 1 3 3 3 2 2 1 2 2 3 3 1 1 1 1 1 1 1 1 1 1 0 0 1 2 3 4 5 5 5 4 4 3 3 4 6 6 6 6 6 6 5 5 5 4 5 5 4 5 5 5 5 5 5 5 6 6 6 6 6 6 6 5 5
11 10 10 8 7 7 6 6 5 3 3 2 3 3 3 3 2 2 4 3 2 2 2 2 3 3 2 2 2 3 5 5 3 2 0 1 1 0 1 1 1 1 0 0 2 3 3 4 6 6 6 6 5 4 3 4 5 5 5 5 5 5 4 4 4 4 4 4 4 4 4 4 5 5 5 6 6 7 7 7 6 6 6 6 6
12 11 10 9 8 7 7 6 5 4 3 2 2 3 3 3 2 2 3 3 2 3 2 2 3 4 2 1 2 3 5 5 4 4 2 1 1 1 1 0 1 1 1 1 3 4 3 3 5 6 6 6 6 5 4 4 4 4 3 4 4 4 4 4 4 4 3 3 4 4 4 4 5 6 6 6 7 7 7 7 7 7 7 7 6
13 12 11 9 8 8 8 7 6 5 4 3 3 2 2 2 2 2 1 1 1 3 3 2 2 2 2 1 1 2 3 3 4 4 3 3 1 1 1 1 1 2 2 2 2 3 3 3 4 5 6 7 7 6 5 4 3 2 2 2 2 2 3 3 3 3 3 3 4 4 5 5 6 6 7 7 7 7 8 8 7 7 7 7 7
14 13 11 10 9 9 8 8 7 6 5 4 3 2 1 2 2 2 1 2 2 1 3 3 2 1 2 2 2 3 3 3 3 3 3 3 2 1 1 1 2 2 2 3 2 3 4 4 4 4 6 7 7 6 5 4 3 3 2 2 2 2 3 3 3 4 4 4 4 5 6 6 7 7 7 7 8 8 8 9 9 9 8 8 7
15 14 12 10 10 9 9 8 8 7 6 5 4 3 2 1 1 1 1 2 2 1 1 2 2 1 2 2 2 3 3 3 3 3 3 3 2 2 1 0 2 2 2 3 3 3 5 5 5 5 5 7 8 6 5 5 5 5 4 4 3 3 4 4 4 5 5 5 5 6 7 7 8 8 9 9 9 9 10 10 10 10 9 9 9
15 15 14 12 11 10 10 9 8 8 8 7 6 5 3 1 1 0 0 1 2 2 1 2 2 2 3 3 2 2 3 3 2 2 2 3 3 3 2 2 2 2 2 3 4 5 5 5 6 6 5 6 8 8 7 7 7 6 6 5 5 4 4 5 5 6 7 7 7 8 8 9 9 10 10 10 11 11 11 11 11 11 11 10 10
16 16 16 14 12 11 10 10 9 9 8 7 7 6 4 3 2 1 1 0 1 2 2 3 3 3 3 4 3 3 4 3 3 3 3 3 4 4 4 4 4 4 4 5 6 6 6 6 6 6 5 6 7 9 9 9 9 8 7 6 6 6 5 5 6 6 7 8 8 9 10 10 11 11 12 12 12 13 13 13 13 12 12 12 11
18 17 16 15 14 12 11 11 11 10 9 8 7 7 6 6 4 3 2 1 1 1 2 3 4 4 3 4 4 4 4 5 4 4 4 4 4 5 5 5 6 5 5 6 6 6 6 5 5 5 6 7 7 8 9 10 10 9 9 9 8 8 8 8 8 9 9 9 10 10 11 12 12 13 13 14 14 14 14 15 14 14 14 14 13
20 18 17 16 15 14 12 12 12 11 10 8 8 7 8 7 5 4 3 2 2 2 2 2 3 4 3 4 4 4 4 5 5 4 4 5 5 5 6 6 6 7 7 7 6 5 4 3 3 4 5 7 7 8 8 8 10 9 9 11 11 10 11 11 11 12 12 12 12 12 13 13 13 14 14 15 16 16 16 16 16 16 16 16 16
22 20 17 17 16 14 13 13 12 11 10 9 9 8 8 8 7 5 4 4 3 3 2 2 3 4 4 4 4 4 4 4 5 5 4 5 5 6 7 7 7 7 7 8 8 6 3 2 3 4 5 5 5 6 6 6 9 9 8 11 13 12 12 14 14 14 15 15 15 15 15 16 16 16 16 17 17 17 18 18 18 19 18 18 18
22 21 19 17 17 15 14 14 13 12 11 10 10 9 9 9 9 7 6 5 4 3 3 3 4 4 4 4 4 4 5 4 4 5 5 5 5 6 6 8 8 8 7 7 7 6 3 2 2 3 4 5 5 6 7 6 8 10 9 11 13 13 13 14 15 16 16 17 18 18 18 19 19 19 19 19 19 19 20 20 20 21 21 21 20
22 21 19 18 18 16 15 14 14 13 12 11 11 10 10 9 10 9 7 7 6 5 4 4 4 5 5 5 4 4 5 6 5 6 6 6 6 6 5 6 8 9 9 8 7 5 4 3 2 4 5 7 8 9 10 10 11 12 13 13 14 16 15 15 15 17 18 19 20 20 21 21 21 22 22 22 22 22 21 21 22 22 23 23 23
23 21 19 18 18 18 17 15 15 14 13 12 12 12 11 10 10 10 9 9 8 7 6 6 5 6 6 6 5 4 5 6 6 6 6 6 6 6 6 6 7 8 10 10 9 7 5 4 4 8 12 12 12 12 12 11 11 13 14 15 15 16 17 17 17 18 19 21 21 22 22 23 23 24 24 25 24 24 24 24 24 24 24 24 25
24 23 20 19 19 19 19 17 16 16 15 13 13 12 12 11 11 11 10 11 10 9 8 8 7 7 7 7 6 6 6 6 6 6 6 6 6 6 7 7 8 8 9 11 12 10 8 7 6 9 15 16 14 13 13 13 13 12 14 16 16 17 18 20 20 21 22 23 23 24 24 25 25 26 26 27 27 27 27 27 27 26 26 26 26
25 24 22 21 20 20 20 20 19 17 16 15 14 14 13 13 12 12 12 13 12 11 10 9 9 9 9 8 8 7 7 7 7 8 7 7 7 7 8 8 8 9 9 11 14 12 10 11 12 12 14 16 16 15 15 16 15 14 14 16 17 18 20 21 23 23 24 25 26 26 27 27 28 28 29 29 29 29 29 29 30 30 29 29 29
24 24 23 22 22 21 21 22 21 20 19 18 17 16 15 15 14 14 14 15 14 13 12 11 11 11 10 9 9 9 8 9 9 9 9 9 9 9 9 9 9 10 10 11 15 17 15 15 16 16 15 15 17 17 17 17 18 18 17 17 18 20 21 23 24 25 25 26 28 29 29 30 31 31 31 31 31 32 32 32 32 33 33 32 32
25 24 24 23 23 23 22 22 22 22 21 20 18 18 17 16 16 16 16 16 16 15 15 14 13 12 12 11 10 10 9 10 10 9 10 10 10 10 10 11 11 11 13 14 16 20 20 18 19 19 18 17 18 18 17 18 19 20 21 21 22 23 23 24 26 27 28 28 28 29 30 31 32 32 32 32 33 33 34 34 35 35 35 35 34
25 25 25 24 24 24 23 23 23 23 23 21 20 20 19 18 18 18 18 18 18 17 16 16 15 14 13 12 11 11 11 11 10 10 10 10 10 10 10 11 12 13 14 16 18 20 22 21 21 22 21 21 21 21 21 21 21 22 24 24 25 26 26 27 28 29 31 31 31 32 32 31 31 32 32 33 33 34 34 35 36 37 37 37 37
25 25 25 25 25 25 24 24 24 24 24 23 22 22 22 22 21 20 20 19 19 18 18 17 16 15 15 14 13 12 13 13 12 11 12 12 11 11 12 13 14 14 16 18 19 21 23 23 22 23 23 23 24 24 24 25 25 25 25 26 26 27 28 29 30 32 33 33 33 34 33 32 32 32 33 34 34 34 35 35 36 37 38 38 39
25 25 25 25 26 26 25 25 25 25 25 24 24 24 24 24 23 22 22 21 20 19 19 18 17 16 16 16 14 14 14 14 13 12 13 13 13 14 14 15 16 17 17 18 19 19 20 22 23 23 24 24 25 25 26 27 27 27 27 27 27 28 29 30 31 33 34 33 33 34 34 35 34 34 35 36 36 36 36 37 37 38 38 39 39
25 25 26 26 26 27 26 26 26 26 25 25 25 25 25 25 25 24 23 23 23 21 20 19 18 17 17 17 15 14 15 15 14 14 14 14 14 15 15 16 17 16 15 16 18 17 16 19 23 24 25 25 25 25 25 25 26 27 26 26 28 28 30 31 31 32 33 34 35 36 37 37 37 37 37 38 38 37 37 38 39 39 40 40 40
27 27 27 27 27 27 27 26 26 27 26 26 26 26 26 26 26 25 24 24 24 23 22 21 20 19 18 18 17 16 16 16 16 15 15 15 16 16 17 17 17 16 15 16 17 16 15 17 21 23 23 22 21 21 22 20 21 23 23 24 27 28 30 32 32 32 33 35 37 39 41 42 41 41 42 43 42 40 37 37 39 40 40 41 41
27 28 28 29 28 28 28 27 27 28 28 28 28 28 27 27 27 27 26 25 25 24 23 22 21 20 20 19 19 18 18 17 17 17 17 17 18 18 18 18 19 18 18 18 17 17 17 18 19 20 20 18 18 20 21 18 17 20 21 23 27 29 30 31 34 35 36 37 39 41 42 41 41 41 43 45 45 42 39 37 37 38 39 40 41
28 28 28 29 29 29 29 29 29 29 29 30 30 30 29 29 29 29 28 26 25 25 25 24 23 22 22 21 21 20 20 18 18 18 19 19 19 19 19 19 19 19 19 19 17 16 16 17 17 17 17 17 17 18 19 18 18 19 21 24 30 34 35 37 39 40 39 40 39 40 41 40 41 43 43 45 46 44 43 42 39 37 36 38 40
29 28 28 28 29 30 30 30 30 30 31 31 31 31 31 31 30 30 30 28 27 27 27 26 25 24 24 23 22 22 22 20 19 19 20 20 20 20 20 20 20 20 19 18 16 14 14 16 16 16 17 17 18 18 19 19 19 21 24 28 33 37 40 42 43 42 42 41 37 37 38 36 35 34 35 42 46 43 44 47 45 41 37 35 36
30 30 29 29 28 29 30 30 30 31 31 32 33 32 32 32 31 31 31 30 29 29 28 28 27 26 26 24 23 24 25 23 21 20 21 21 21 21 21 21 21 20 18 17 15 13 14 15 15 15 17 18 18 18 20 21 20 22 25 30 34 39 40 42 44 43 42 40 33 32 38 37 33 34 36 44 49 45 44 47 47 46 43 39 35
31 31 31 30 29 29 30 31 31 31 32 33 33 32 32 32 31 31 32 31 31 30 30 30 29 28 27 26 24 25 26 25 23 22 22 22 23 23 22 22 22 22 21 20 19 16 15 15 16 16 17 18 17 18 20 22 23 24 27 30 35 38 38 40 43 44 44 40 31 30 40 45 42 43 47 50 49 47 47 47 46 45 46 44 39
32 32 32 32 31 30 30 30 31 32 33 33 33 32 31 31 31 31 31 32 32 32 31 31 31 30 29 28 26 25 26 27 26 24 24 24 23 23 23 23 23 23 23 23 22 20 18 17 17 16 16 17 16 17 19 24 29 30 30 32 34 35 36 38 39 42 44 43 37 34 43 50 46 44 48 48 46 46 47 46 44 42 43 44 42
33 33 33 33 33 32 32 31 31 31 32 33 33 31 30 30 30 30 31 32 32 33 32 32 32 31 31 30 29 28 27 28 27 26 25 24 24 25 24 24 24 25 25 25 24 24 23 21 19 17 16 16 16 17 19 26 33 33 32 33 34 34 37 39 39 41 43 44 44 42 46 50 47 45 49 49 46 46 45 43 42 42 42 42 43
34 34 34 34 34 34 33 33 33 32 32 33 33 31 30 29 28 29 30 31 32 33 33 32 32 32 31 31 31 30 29 28 27 27 26 25 25 25 25 26 26 26 25 24 23 22 21 20 20 18 17 17 17 17 18 22 27 30 31 34 35 36 39 40 40 43 43 42 43 44 48 51 49 45 47 46 43 42 40 37 38 40 41 42 42
35 35 35 34 34 34 33 33 34 33 34 34 33 31 29 28 28 28 29 30 31 32 33 33 32 32 31 31 31 30 29 28 27 27 26 26 25 24 24 25 26 24 21 19 18 19 20 19 19 19 18 17 17 18 20 20 21 25 30 32 33 35 38 40 42 44 44 41 39 37 40 45 44 40 42 41 38 37 35 35 38 39 39 41 41
35 35 35 34 34 34 33 33 34 34 34 34 34 32 30 28 28 28 29 30 31 32 33 33 32 32 32 31 31 30 29 28 28 27 26 26 24 23 24 25 25 22 18 16 16 18 19 18 19 19 18 17 18 20 22 21 21 24 27 29 32 33 35 39 42 42 39 37 34 30 33 39 39 37 39 40 38 38 38 37 38 36 35 36 35
36 35 34 34 34 34 34 34 34 34 34 34 34 32 30 29 28 29 30 31 32 33 33 33 32 32 32 32 31 30 29 28 28 28 27 25 23 23 24 25 25 21 16 15 16 17 18 17 18 20 20 20 20 20 20 20 21 21 23 27 29 28 28 32 36 37 35 33 31 28 32 40 41 37 38 40 39 40 40 37 35 34 33 33 32
36 35 34 33 33 34 34 34 34 34 34 34 34 33 31 30 29 29 31 32 32 33 33 33 33 32 33 32 31 30 30 29 28 28 28 25 23 23 24 24 22 19 15 14 14 16 18 19 19 21 22 21 20 20 21 20 20 20 23 24 24 22 23 26 30 34 35 33 29 26 29 37 39 37 37 38 38 37 34 32 31 30 31 32 31
35 35 34 33 34 34 34 33 33 33 32 33 34 33 32 31 30 30 31 32 32 33 33 33 33 33 33 32 32 31 30 29 29 29 28 25 23 23 23 20 18 17 15 13 15 17 18 19 19 20 19 19 20 22 23 22 23 24 23 20 17 18 22 26 27 30 32 32 29 27 30 36 39 37 36 36 38 38 33 28 28 29 29 31 33
Wind_Direction
131 123 111 103 94 92 84 80 72 67 71 70 81 97 101 97 102 104 111 113 110 115 117 115 115 117 118 111 111 113 113 116 116 117 119 122 118 102 95 92 93 94 92 99 126 141 127 115 106 94 86 82 85 87 90 88 84 79 66 51 36 30 23 12 5 3 9 10 9 7 3 1 356 353 350 347 351 353 356 360 360 355 349 346 345
137 126 111 103 96 90 85 83 74 66 64 62 66 75 81 82 88 89 96 105 111 122 123 125 127 128 128 120 118 119 118 120 116 110 111 123 128 107 99 96 94 95 94 98 113 134 135 125 119 112 99 90 90 89 88 87 82 72 54 38 17 9 4 2 2 357 358 3 3 0 356 355 353 351 349 349 350 349 349 349 346 343 339 337 336
143 129 113 103 95 86 81 77 70 65 60 63 66 67 75 85 93 96 96 102 112 124 125 126 128 128 126 124 125 125 127 124 113 108 113 124 129 115 107 105 95 93 96 98 102 113 120 118 120 130 148 154 133 99 83 73 57 39 24 3 340 341 349 351 351 348 347 351 352 349 348 345 343 341 338 338 340 338 337 337 335 334 332 330 330
148 137 125 107 95 88 75 69 63 60 58 64 73 79 88 96 100 103 106 109 115 120 119 121 125 125 122 121 123 124 128 125 125 131 129 124 125 125 117 107 94 95 98 97 98 102 101 102 108 110 114 122 155 303 312 324 327 327 326 320 319 330 341 343 342 340 338 341 342 338 337 336 333 331 328 326 327 327 326 327 328 327 327 327 328
155 146 130 108 102 96 76 66 61 57 55 60 62 68 86 99 102 99 104 112 116 116 115 119 123 121 120 119 119 119 117 118 127 134 125 119 124 128 124 102 86 93 101 100 102 113 106 98 98 99 99 97 84 49 21 347 330 326 324 325 331 333 336 340 338 335 335 338 338 334 333 334 335 334 330 327 325 325 324 325 326 327 327 327 329
159 149 131 110 98 87 74 68 59 57 47 55 62 64 80 105 121 111 106 111 115 114 116 122 121 118 118 115 112 107 104 107 114 120 126 137 139 130 124 108 100 84 76 94 95 116 156 166 139 69 65 65 40 42 18 354 352 341 339 340 339 336 333 337 336 333 334 335 335 334 333 335 338 335 332 330 329 329 327 327 329 329 331 333 334
164 155 136 113 96 74 73 69 60 63 42 50 67 65 70 100 127 124 113 110 107 104 112 122 121 120 116 110 107 100 98 93 92 97 114 135 138 132 130 126 117 74 22 27 14 74 21 319 290 295 356 321 311 325 311 319 326 318 326 329 322 322 323 326 330 328 328 329 330 331 332 335 335 332 330 329 329 333 333 333 334 334 337 343 344
171 163 138 109 99 84 81 74 68 65 30 41 56 47 55 92 125 128 118 106 100 98 106 118 118 121 113 105 96 88 88 80 81 91 103 120 127 120 118 122 120 84 29 332 334 19 15 354 331 318 313 304 303 309 305 310 315 312 321 325 319 320 321 321 323 321 321 323 325 327 329 331 332 332 333 332 333 339 343 343 344 347 350 353 354
180 174 148 122 114 101 92 42 51 38 16 35 40 31 45 87 125 132 116 95 93 98 107 118 116 120 118 108 89 73 78 78 76 84 92 99 112 115 112 118 103 60 31 346 339 349 359 6 356 336 320 314 311 311 311 310 312 315 319 320 320 320 321 321 319 318 318 320 324 327 327 327 330 335 337 339 346 354 359 0 0 3 2 2 3
186 183 160 143 139 141 152 134 6 347 12 25 20 26 43 92 123 137 140 114 94 91 107 126 116 117 126 121 93 66 63 67 64 63 72 76 96 118 125 104 87 53 35 18 354 340 341 353 353 343 335 325 311 306 312 312 308 309 309 310 315 315 315 317 318 319 317 319 326 330 329 328 332 339 345 351 357 1 4 4 5 5 1 359 358
186 187 171 150 145 174 181 147 17 359 16 18 14 30 63 130 133 138 149 157 152 124 121 129 125 125 129 127 93 50 40 53 51 47 60 67 62 102 126 119 80 70 50 42 15 342 337 341 345 339 333 326 314 306 306 309 310 311 311 310 310 312 314 316 316 316 316 320 329 330 328 331 337 344 346 349 350 350 351 352 352 352 349 348 349
186 189 178 160 160 201 232 238 17 30 30 30 27 35 73 131 166 144 136 152 187 189 170 143 140 145 141 167 220 309 312 332 31 20 20 37 67 134 156 174 110 102 73 54 356 327 329 330 332 322 315 315 314 310 305 309 311 311 312 311 313 319 322 322 320 319 316 319 325 323 322 329 336 339 338 337 338 338 341 344 346 348 350 353 355
195 194 192 185 184 211 252 279 296 31 37 33 34 29 54 95 146 137 132 144 152 193 208 187 169 187 207 214 249 272 277 291 318 313 320 347 262 160 163 182 167 140 14 18 346 340 330 318 321 313 306 308 307 308 313 317 314 315 318 315 322 330 331 329 327 324 318 317 318 314 317 325 328 331 332 333 334 338 342 346 352 355 358 358 358
206 203 207 207 208 228 245 265 277 286 4 22 28 27 48 71 101 104 105 131 140 166 196 188 171 170 167 174 229 244 272 289 284 268 277 314 320 261 200 207 238 295 341 347 354 5 321 304 314 313 305 303 296 299 310 311 304 312 319 317 324 332 334 333 333 332 324 322 320 311 313 318 323 328 332 336 340 344 347 348 352 352 352 351 348
213 212 215 215 216 231 240 254 267 281 330 11 21 18 35 53 88 97 86 106 144 168 192 179 146 136 155 139 129 174 336 316 257 246 252 295 323 296 288 295 259 242 321 335 346 354 304 306 318 319 318 316 297 292 297 294 293 303 309 310 319 328 334 335 337 341 335 331 322 313 315 317 325 333 336 340 340 339 339 337 338 335 335 335 333
215 215 217 216 216 221 228 240 250 270 304 333 359 5 17 34 68 98 92 109 137 164 194 189 172 154 143 96 78 77 58 56 57 222 231 282 338 311 306 331 266 242 154 307 316 335 336 335 336 334 336 337 323 302 285 280 290 300 301 302 312 322 330 332 332 334 330 327 322 318 321 324 330 335 334 334 331 330 329 326 325 322 322 322 321
214 215 215 214 214 217 221 226 233 245 266 303 331 339 356 22 52 87 102 120 139 163 182 199 208 196 153 64 52 52 39 34 40 58 12 314 2 329 332 17 246 270 157 220 322 355 356 334 338 346 347 348 346 332 309 291 292 300 301 301 307 314 320 323 320 320 321 319 320 319 321 323 324 325 323 322 320 319 318 315 313 312 312 312 311
216 217 215 213 215 217 219 220 223 227 232 252 276 302 331 354 19 56 111 131 134 158 172 190 211 223 237 5 25 19 13 16 27 41 34 353 333 252 325 83 201 270 318 311 320 343 353 332 337 342 346 354 357 351 340 329 316 312 304 299 308 310 309 313 309 307 309 307 307 307 308 308 309 308 307 308 310 309 308 306 305 304 304 304 304
221 222 219 218 218 216 219 220 217 217 223 234 246 261 294 312 353 34 87 55 80 150 177 190 213 243 254 283 339 346 0 10 9 15 21 12 356 251 229 207 222 264 292 302 298 306 316 323 325 323 331 346 351 350 347 347 344 333 311 300 309 309 303 303 300 297 295 294 295 297 299 300 300 300 300 303 305 303 301 300 297 297 296 297 296
223 226 224 223 222 218 218 219 216 215 216 221 232 235 243 289 348 30 15 356 21 138 182 198 216 264 261 256 281 312 339 354 345 345 349 353 10 71 178 224 274 275 273 292 291 283 300 309 308 306 314 325 334 343 341 340 344 338 327 319 313 305 302 299 295 296 294 295 298 299 300 301 299 298 299 300 299 297 295 293 292 292 291 291 289
226 229 226 225 224 220 218 219 216 213 212 210 217 227 241 288 339 21 20 353 345 335 192 213 223 240 266 270 278 301 317 322 322 328 332 335 357 33 54 282 304 297 282 294 293 290 296 298 302 304 305 310 320 330 331 331 334 331 321 315 309 302 299 296 294 294 293 291 292 292 293 294 295 294 293 292 290 289 289 288 289 289 289 288 285
228 230 227 225 225 221 219 220 216 213 212 206 205 210 219 226 236 330 54 357 319 322 252 226 235 233 254 275 276 287 304 314 322 314 309 321 327 332 341 338 330 324 310 293 286 294 294 287 294 300 293 295 304 313 317 317 317 320 316 308 303 298 293 291 290 287 286 286 283 283 284 284 285 286 286 286 285 284 285 285 286 287 287 286 283
229 231 231 228 226 223 219 218 217 217 215 209 204 200 207 221 209 193 186 150 302 305 270 236 248 261 269 285 287 280 284 297 312 309 312 321 318 317 327 337 333 331 319 299 294 298 295 286 286 288 283 281 284 293 304 308 303 303 305 303 299 297 298 294 291 289 286 285 283 281 281 281 281 282 282 283 283 283 283 283 283 284 284 283 281
229 229 231 230 228 225 220 217 217 216 215 214 211 201 202 212 206 189 190 181 185 270 279 253 251 266 272 278 283 278 274 282 288 294 306 313 314 317 324 333 329 325 322 310 308 306 296 290 286 285 285 285 286 290 301 306 301 298 299 299 299 297 300 300 295 294 292 289 288 286 284 284 283 282 281 281 282 283 283 283 282 282 281 280 279
228 227 228 229 229 226 220 218 217 215 214 214 216 212 206 208 207 195 190 199 198 202 255 253 236 243 245 244 260 270 272 279 284 285 290 298 305 310 315 325 325 322 322 323 332 330 308 294 287 286 288 292 299 304 309 303 297 302 301 297 301 300 297 300 299 296 295 292 290 288 287 287 286 286 285 284 284 283 282 282 281 280 278 277 276
232 228 226 226 228 226 221 220 219 216 215 214 217 220 217 214 213 206 195 199 209 207 222 246 238 236 242 242 247 264 270 270 280 286 284 285 296 305 309 316 319 321 322 325 341 351 337 313 298 300 306 311 316 317 321 305 292 304 307 296 301 303 294 292 292 292 291 290 290 289 289 289 290 290 290 289 288 286 284 281 280 278 277 275 274
234 232 227 225 228 228 224 223 223 221 220 219 220 223 225 224 220 215 208 203 208 214 219 234 244 241 247 254 248 254 268 266 263 274 275 273 280 288 298 311 317 322 324 322 333 339 329 323 305 305 323 336 343 334 331 320 300 305 308 296 298 303 298 291 288 288 288 286 287 287 287 288 288 289 289 289 289 288 286 284 282 280 278 276 274
235 233 229 225 225 227 226 225 224 222 223 223 223 224 226 229 230 225 218 216 215 213 221 231 237 239 242 253 251 243 253 255 248 252 257 258 263 272 285 301 308 315 322 324 329 334 331 331 306 302 321 330 328 320 313 308 303 303 304 300 299 301 303 301 294 291 290 288 288 287 286 287 286 286 286 286 285 285 285 285 284 283 281 279 276
234 233 229 225 223 224 225 225 223 221 222 223 224 225 226 227 234 233 225 227 228 218 221 230 235 239 239 246 254 252 253 258 258 259 263 265 269 277 283 287 290 299 310 313 316 323 317 310 302 300 311 322 321 313 308 305 303 302 302 303 303 302 304 303 298 294 291 290 290 289 288 287 286 286 285 284 283 283 282 282 281 281 280 278 276
231 231 229 226 223 223 223 223 223 222 221 222 224 225 227 227 232 236 231 231 233 230 227 228 234 241 241 244 252 256 261 269 273 274 282 285 285 288 287 289 292 293 298 300 304 314 313 305 301 296 306 319 323 317 315 315 311 307 306 304 303 301 299 297 295 292 290 289 288 288 287 286 286 285 284 283 282 281 281 280 279 278 276 275 273
229 229 229 228 226 223 222 222 223 223 222 222 224 225 228 230 231 235 238 237 235 235 237 236 237 242 244 246 251 256 259 263 267 273 285 292 293 295 295 298 301 298 300 298 297 306 311 302 300 301 304 313 318 317 317 317 314 309 305 302 299 297 293 290 290 289 289 289 288 286 286 285 285 284 283 282 280 279 278 277 277 276 275 274 273
228 228 229 230 230 227 224 224 225 226 225 224 225 226 228 231 232 232 237 241 240 237 239 241 241 244 247 248 252 258 261 265 270 275 283 288 291 293 295 299 304 303 305 302 297 303 309 305 305 309 307 305 307 311 313 312 311 309 304 300 297 296 294 293 293 292 291 290 289 288 287 286 285 284 283 282 281 280 279 277 277 276 275 274 274
227 227 227 229 231 231 229 228 228 229 229 226 226 228 229 232 234 233 234 240 244 242 241 241 242 246 249 252 255 259 261 265 271 276 280 283 286 291 296 299 303 304 304 304 303 304 306 308 308 309 309 307 306 308 310 311 312 311 308 305 302 300 299 299 298 296 294 291 289 288 287 286 287 286 285 283 282 280 279 278 278 277 275 274 273
224 225 226 227 230 231 231 232 231 231 232 229 228 231 232 233 235 238 239 242 244 246 245 244 245 248 251 253 255 257 260 263 267 272 273 271 270 275 283 290 295 297 298 301 302 302 302 304 306 307 309 312 311 311 311 310 309 308 306 306 305 304 303 301 298 296 294 293 292 291 290 289 288 286 285 283 281 280 279 278 277 277 275 274 272
222 222 224 226 228 230 230 232 232 232 233 232 231 233 235 236 238 240 243 245 246 247 247 247 247 248 251 252 252 254 259 261 263 266 269 270 268 268 272 280 287 290 292 296 298 299 300 300 301 303 305 305 306 308 309 308 306 305 304 304 304 303 302 300 298 296 295 296 296 295 294 291 288 286 284 282 281 279 278 278 277 276 274 272 271
219 219 220 222 226 228 229 231 233 233 234 234 234 235 238 239 240 241 242 245 247 247 248 248 247 247 250 252 252 253 256 260 262 262 266 271 275 277 279 281 287 291 292 292 292 293 294 296 298 300 300 301 302 304 303 303 302 302 304 305 304 301 300 298 297 298 298 298 296 294 293 291 290 289 287 286 284 281 278 277 276 274 272 270 269
216 217 218 219 223 226 227 230 233 234 235 235 236 237 240 241 241 242 243 245 247 248 249 249 248 248 248 250 250 250 253 258 261 264 267 271 275 279 282 284 288 289 286 286 288 287 285 289 294 297 300 302 302 301 299 298 300 301 303 304 303 301 301 300 299 299 299 299 298 297 296 294 293 291 289 287 284 281 278 275 273 272 271 269 267
215 218 219 219 222 226 227 229 233 236 236 237 238 238 240 242 242 242 243 245 247 248 249 250 250 250 250 250 250 249 252 257 261 266 270 273 277 280 284 287 288 286 283 285 288 285 281 285 291 297 302 303 302 301 300 300 300 302 303 301 301 302 303 304 303 301 300 298 298 297 296 296 296 295 295 292 289 286 282 279 277 274 272 270 267
214 217 220 221 223 226 229 230 233 237 239 239 240 240 239 240 242 242 242 243 246 248 249 250 251 252 252 253 254 253 254 258 262 266 270 274 280 284 286 288 289 288 288 288 286 283 283 285 291 296 299 299 299 300 303 303 301 305 308 303 300 304 307 306 303 301 299 298 297 296 296 299 301 299 297 294 291 291 289 285 280 277 275 273 271
215 216 219 223 225 227 229 231 233 237 240 241 241 241 239 238 240 241 241 241 243 246 248 249 250 251 253 255 258 260 259 258 260 264 270 275 280 283 284 285 287 288 288 286 283 281 281 282 285 289 292 295 297 299 303 305 299 301 307 302 299 306 311 309 307 305 304 302 300 300 302 306 306 302 297 295 294 295 298 296 289 281 278 275 273
218 217 218 221 225 226 228 230 232 235 238 240 241 240 238 237 237 239 242 241 242 244 247 249 250 251 253 254 257 261 263 261 260 263 268 273 276 278 280 282 283 284 284 282 279 277 278 279 281 286 290 292 296 297 298 299 297 298 300 298 299 305 310 309 308 310 311 310 308 307 309 310 307 301 298 300 303 303 305 307 302 295 292 286 278
221 220 220 221 224 226 228 229 231 233 236 239 240 239 239 238 237 237 240 242 243 244 246 249 251 252 254 255 255 259 264 264 262 264 267 270 272 273 275 277 277 276 276 275 274 273 275 277 279 284 288 289 291 294 295 296 298 297 296 297 301 305 307 306 307 311 314 314 311 310 311 311 306 302 303 307 309 307 306 308 306 304 303 299 292
222 222 223 223 223 225 229 229 230 232 236 238 240 240 239 239 238 238 239 242 244 245 247 249 251 253 254 256 256 259 264 266 265 266 267 268 271 272 273 273 271 269 269 269 270 270 271 274 277 279 283 285 288 294 298 297 292 289 292 296 300 304 305 306 308 310 313 314 309 304 308 309 307 305 306 309 311 310 308 307 306 305 304 303 300
221 222 224 225 224 225 228 230 230 232 236 239 240 240 240 239 239 238 240 242 244 246 248 249 251 253 254 255 256 257 262 267 269 269 269 269 270 271 270 270 267 266 266 266 266 267 267 270 272 273 276 283 289 297 300 296 294 295 299 300 303 306 308 308 306 307 311 313 310 305 307 309 309 308 308 309 311 311 309 306 305 304 303 302 301
222 224 225 225 226 226 227 230 231 232 235 238 239 240 240 239 238 238 239 242 244 246 248 249 251 252 254 255 256 256 260 265 268 269 271 272 272 271 270 269 268 267 266 265 264 266 267 270 272 271 275 283 289 294 295 296 299 303 304 305 309 310 309 308 306 306 310 314 313 311 309 310 311 310 309 311 314 314 310 306 306 306 303 302 300
225 225 226 227 228 228 229 231 232 232 234 238 240 240 239 239 238 237 237 240 243 245 247 249 250 251 253 254 256 258 259 261 264 266 269 270 271 272 273 272 272 272 269 267 267 268 270 274 275 277 284 288 288 288 292 297 302 304 304 307 311 311 310 309 308 307 310 313 316 315 311 312 316 313 309 311 313 310 306 303 305 307 304 302 302
227 226 227 229 230 231 231 232 233 234 234 237 240 240 238 237 237 236 236 238 240 243 245 248 249 251 252 253 255 257 258 259 261 263 265 267 269 270 271 272 273 273 270 268 270 272 275 277 280 286 292 291 290 294 298 299 300 302 304 306 309 311 311 310 309 311 313 315 319 315 307 312 317 309 305 308 306 300 297 295 298 301 297 295 298
228 229 229 230 232 233 233 233 234 236 236 238 240 240 238 236 234 234 235 236 238 241 244 246 249 250 251 252 253 255 256 257 260 261 262 265 266 266 267 268 268 267 267 268 271 275 278 281 286 292 293 290 295 303 304 302 303 306 307 308 312 315 315 313 313 315 314 314 316 309 299 305 310 301 298 305 303 297 296 295 296 297 293 292 294
228 231 231 231 232 234 235 235 235 236 238 239 240 239 237 235 232 231 233 235 237 239 241 244 247 248 250 251 252 253 255 256 258 260 261 262 262 262 262 263 264 265 266 268 273 280 285 287 288 290 293 297 302 306 306 306 308 310 311 315 319 319 313 309 309 310 309 309 312 306 296 300 306 302 298 301 301 298 298 299 299 300 298 297 296
227 230 233 233 234 235 236 237 237 237 239 241 242 240 237 235 232 231 232 234 236 239 240 242 244 246 249 250 251 252 253 255 256 258 260 260 258 256 257 259 263 266 267 271 275 277 280 283 285 290 296 303 307 309 311 312 315 319 322 323 322 315 304 300 303 305 308 310 313 310 301 300 304 305 302 303 302 299 299 302 304 304 303 302 298
226 229 232 234 235 236 237 239 240 239 240 243 244 242 239 236 234 233 234 235 236 238 239 241 243 244 247 249 251 252 252 253 255 256 257 257 252 250 254 260 264 266 268 271 269 266 270 279 287 294 300 304 308 313 317 320 325 331 333 327 317 307 301 302 305 306 307 310 314 312 303 301 304 306 307 309 307 303 304 306 306 307 304 299 297